User: anonymous   Login
Location: NJAA Observatory
(40.6819°N, 74.8979°W)
Time: 20:22:10
(UTC-04:00)
Language:

S-56A Canister/Altair - Orbit

View from above orbital plane
View from above orbital plane
View from above satellite
View from above satellite

Ground track
Ground track

The orbit data is extracted from the following two-line orbital elements,

1    82U 61004B   17177.56769397 +.00000119 +00000-0 +12368-3 0  9990
2    82 038.8608 262.3807 1171234 238.7770 109.2969 12.25847229674416
Epoch (UTC): 26 June 2017 13:37:28
Eccentricity: 0.1171234
inclination: 38.8608°
perigee height: 636 km
apogee height: 2498 km
right ascension of ascending node: 262.3807°
argument of perigee: 238.7770°
revolutions per day: 12.25847229
mean anomaly at epoch: 109.2969°
orbit number at epoch: 67441

The dashed part of the orbit path shows where the satellite is in the earth's shadow,  

DLR